Total_Precipitation_Accumulation
0.00 0.00 0.04 0.02 0.00 0.01 0.02 0.00 0.00 0.00 0.01 0.01 0.01 0.01 0.00 0.00 0.00 0.00 0.00 0.01 0.01 0.00 0.00 0.01 0.01 0.01 0.01 0.01 0.00 0.00 0.00 0.00 0.00 0.00 0.01 0.01 0.01 0.01 0.01 0.01 0.05 0.08 0.02
0.00 0.00 0.02 0.01 0.00 0.01 0.02 0.01 0.00 0.00 0.00 0.00 0.00 0.00 0.00 0.00 0.00 0.00 0.00 0.01 0.00 0.00 0.00 0.00 0.00 0.00 0.00 0.00 0.00 0.00 0.00 0.00 0.00 0.00 0.00 0.00 0.00 0.00 0.01 0.01 0.04 0.05 0.01
0.00 0.00 0.01 0.00 0.01 0.02 0.01 0.01 0.01 0.00 0.00 0.00 0.01 0.02 0.01 0.01 0.00 0.00 0.00 0.00 0.00 0.00 0.00 0.00 0.00 0.00 0.00 0.00 0.00 0.00 0.00 0.00 0.00 0.00 0.01 0.01 0.00 0.00 0.00 0.00 0.00 0.00 0.00
0.00 0.00 0.00 0.00 0.01 0.01 0.01 0.01 0.01 0.01 0.00 0.01 0.05 0.05 0.04 0.01 0.01 0.00 0.00 0.00 0.00 0.00 0.00 0.00 0.00 0.00 0.00 0.00 0.01 0.00 0.00 0.00 0.00 0.00 0.02 0.11 0.06 0.01 0.01 0.01 0.00 0.00 0.00
0.00 0.00 0.00 0.00 0.01 0.00 0.01 0.02 0.03 0.02 0.01 0.02 0.08 0.09 0.07 0.02 0.02 0.02 0.01 0.00 0.00 0.01 0.00 0.00 0.01 0.00 0.00 0.01 0.01 0.00 0.00 0.00 0.00 0.00 0.02 0.10 0.14 0.05 0.03 0.05 0.04 0.02 0.01
0.00 0.00 0.00 0.00 0.01 0.00 0.01 0.01 0.04 0.06 0.04 0.05 0.08 0.09 0.07 0.05 0.08 0.06 0.02 0.01 0.01 0.02 0.01 0.00 0.01 0.00 0.00 0.01 0.01 0.01 0.01 0.01 0.01 0.01 0.02 0.03 0.12 0.12 0.10 0.18 0.21 0.16 0.09
0.00 0.00 0.00 0.00 0.00 0.00 0.00 0.00 0.02 0.04 0.05 0.07 0.08 0.06 0.04 0.03 0.03 0.03 0.02 0.01 0.01 0.01 0.01 0.01 0.01 0.01 0.01 0.01 0.01 0.01 0.01 0.01 0.01 0.02 0.02 0.05 0.11 0.12 0.17 0.34 0.46 0.41 0.31
0.00 0.00 0.00 0.01 0.00 0.00 0.00 0.00 0.00 0.01 0.01 0.01 0.02 0.02 0.01 0.01 0.02 0.03 0.03 0.02 0.02 0.02 0.02 0.02 0.01 0.02 0.03 0.02 0.02 0.03 0.03 0.01 0.01 0.01 0.04 0.06 0.07 0.09 0.27 0.43 0.55 0.57 0.54
0.00 0.00 0.00 0.00 0.00 0.00 0.00 0.00 0.00 0.00 0.00 0.01 0.01 0.01 0.01 0.01 0.02 0.03 0.05 0.05 0.05 0.05 0.06 0.05 0.03 0.03 0.03 0.03 0.03 0.04 0.03 0.03 0.03 0.03 0.04 0.08 0.10 0.23 0.52 0.59 0.59 0.64 0.66
0.00 0.00 0.00 0.01 0.00 0.00 0.00 0.00 0.00 0.00 0.00 0.01 0.01 0.01 0.01 0.01 0.02 0.05 0.07 0.08 0.09 0.12 0.12 0.07 0.05 0.04 0.04 0.03 0.02 0.03 0.04 0.04 0.03 0.03 0.06 0.06 0.11 0.33 0.61 0.68 0.69 0.70 0.71
0.00 0.00 0.00 0.01 0.01 0.00 0.00 0.00 0.00 0.01 0.01 0.01 0.02 0.02 0.02 0.02 0.06 0.12 0.15 0.21 0.19 0.18 0.14 0.10 0.07 0.07 0.07 0.03 0.07 0.11 0.07 0.02 0.02 0.02 0.05 0.06 0.14 0.34 0.54 0.60 0.64 0.70 0.69
0.00 0.01 0.01 0.01 0.01 0.00 0.00 0.01 0.01 0.02 0.04 0.03 0.06 0.11 0.14 0.20 0.17 0.07 0.13 0.27 0.33 0.33 0.26 0.25 0.24 0.18 0.17 0.16 0.42 0.53 0.14 0.10 0.06 0.05 0.10 0.13 0.24 0.42 0.61 0.60 0.58 0.62 0.60
0.00 0.00 0.00 0.01 0.01 0.01 0.00 0.01 0.01 0.01 0.06 0.05 0.06 0.14 0.20 0.19 0.12 0.06 0.07 0.17 0.31 0.36 0.29 0.43 0.50 0.37 0.40 0.48 0.47 0.49 0.24 0.18 0.19 0.15 0.15 0.25 0.38 0.57 0.84 0.74 0.59 0.54 0.50
0.00 0.00 0.01 0.00 0.01 0.01 0.01 0.01 0.01 0.01 0.03 0.04 0.08 0.08 0.16 0.18 0.11 0.10 0.11 0.12 0.21 0.29 0.41 0.46 0.58 0.56 0.53 0.47 0.48 0.46 0.42 0.42 0.34 0.38 0.37 0.31 0.37 0.52 0.83 0.78 0.57 0.51 0.45
0.01 0.02 0.02 0.02 0.03 0.03 0.03 0.03 0.02 0.02 0.03 0.04 0.08 0.08 0.10 0.15 0.15 0.17 0.18 0.18 0.17 0.25 0.36 0.44 0.49 0.70 0.79 0.62 0.49 0.47 0.48 0.55 0.53 0.62 0.59 0.48 0.42 0.49 0.67 0.74 0.61 0.53 0.46
0.05 0.05 0.06 0.09 0.12 0.11 0.10 0.08 0.07 0.07 0.09 0.09 0.12 0.14 0.15 0.21 0.26 0.28 0.29 0.32 0.31 0.37 0.43 0.55 0.70 0.93 0.92 0.88 0.70 0.58 0.56 0.53 0.50 0.57 0.60 0.62 0.59 0.55 0.54 0.60 0.60 0.53 0.47
0.12 0.13 0.17 0.24 0.29 0.27 0.22 0.20 0.19 0.20 0.22 0.21 0.24 0.26 0.29 0.35 0.41 0.42 0.38 0.40 0.55 0.69 0.73 0.75 0.91 1.11 0.93 0.98 0.81 0.75 0.64 0.56 0.47 0.47 0.54 0.56 0.52 0.51 0.55 0.57 0.53 0.47 0.47
0.27 0.28 0.39 0.48 0.50 0.46 0.45 0.45 0.41 0.39 0.38 0.34 0.34 0.35 0.39 0.46 0.53 0.63 0.55 0.56 0.94 1.03 1.04 1.14 1.30 1.29 1.18 1.16 1.02 0.84 0.66 0.59 0.49 0.43 0.40 0.43 0.46 0.44 0.52 0.57 0.49 0.41 0.43
0.61 0.67 0.82 0.90 0.85 0.76 0.73 0.71 0.66 0.53 0.43 0.39 0.41 0.43 0.50 0.58 0.68 0.85 0.78 0.93 1.24 1.27 1.24 1.26 1.50 1.46 1.29 1.27 1.20 0.94 0.65 0.53 0.40 0.34 0.30 0.27 0.31 0.37 0.37 0.39 0.38 0.38 0.49
1.02 1.20 1.18 1.22 1.32 1.28 1.18 0.98 0.74 0.52 0.44 0.44 0.46 0.48 0.58 0.68 0.85 1.11 1.01 1.09 1.32 1.41 1.36 1.36 1.32 1.37 1.23 1.24 1.20 0.92 0.62 0.41 0.35 0.29 0.25 0.21 0.19 0.19 0.22 0.28 0.31 0.29 0.39
1.27 1.47 1.59 1.65 1.67 1.53 1.29 1.02 0.84 0.73 0.70 0.61 0.61 0.62 0.66 0.71 0.86 1.15 1.11 1.21 1.31 1.27 1.25 1.35 1.35 1.23 1.01 1.19 1.22 0.88 0.53 0.39 0.35 0.23 0.20 0.18 0.16 0.15 0.15 0.21 0.28 0.32 0.37
1.32 1.61 1.70 1.83 1.86 1.66 1.41 1.23 1.21 1.23 1.02 0.84 0.89 0.93 0.96 1.02 1.04 1.11 1.15 1.17 1.23 1.26 1.15 1.12 1.19 1.09 0.89 1.05 1.13 1.05 0.59 0.39 0.32 0.26 0.28 0.34 0.31 0.26 0.23 0.26 0.28 0.38 0.46
1.29 1.43 1.51 1.55 1.53 1.38 1.31 1.36 1.43 1.48 1.30 1.28 1.36 1.41 1.39 1.41 1.36 1.34 1.25 1.14 1.02 1.01 0.92 0.93 1.03 1.04 0.92 0.92 1.09 1.21 0.88 0.58 0.50 0.36 0.37 0.38 0.39 0.39 0.36 0.38 0.38 0.45 0.51
1.32 1.49 1.62 1.58 1.40 1.29 1.33 1.48 1.56 1.56 1.54 1.67 1.86 1.76 1.52 1.36 1.20 1.06 0.94 0.91 0.85 0.84 0.75 0.73 0.80 0.81 0.79 0.77 0.85 0.98 1.06 1.05 0.92 0.50 0.31 0.28 0.35 0.40 0.46 0.44 0.39 0.43 0.52
1.16 1.25 1.41 1.47 1.38 1.33 1.34 1.40 1.48 1.50 1.50 1.49 1.45 1.35 1.20 1.04 0.87 0.73 0.67 0.65 0.62 0.62 0.56 0.55 0.55 0.55 0.58 0.61 0.70 0.81 0.93 1.02 1.06 0.90 0.53 0.46 0.49 0.47 0.50 0.46 0.46 0.48 0.49
0.96 0.97 0.95 1.02 1.08 1.13 1.15 1.17 1.17 1.13 1.08 1.01 0.91 0.87 0.81 0.70 0.53 0.42 0.39 0.41 0.46 0.52 0.48 0.45 0.44 0.45 0.50 0.58 0.65 0.72 0.79 0.79 0.86 0.96 0.76 0.63 0.55 0.49 0.52 0.56 0.56 0.61 0.58